Location: Cerbedi�res
(48.2182°N, 1.4849°W)
Time: 08:14:56
(UTC+00:00)

SKYMED 2 - Pass Details

Date: 03 March 2021
Orbit: 621 x 623 km, 97.9° (Epoch: 11 April)

Event Time Altitude Azimuth Distance (km) Brightness Sun altitude
Rises 18:34:43 0° 11° (N) 2,915 6.9 -7.7°
Reaches altitude 10° 18:36:56 10° 8° (N) 2,004 6.1 -8.0°
Maximum altitude 18:41:15 66° 288° (WNW) 685 4.1 -8.8°
Drops below altitude 10° 18:45:32 10° 206° (SSW) 1,987 6.5 -9.5°
Sets 18:47:43 0° 203° (SSW) 2,889 7.3 -9.8°
